Tracking 17694 objects as of 29-May-2016
HD Live streaming from Space Station
objects crossing your sky now

MOZ.5/SAFIR/RUBIN 5/SL-8

Track MOZ.5/SAFIR/RUBIN 5/SL-8 now!
10-day predictions
MOZ.5/SAFIR/RUBIN 5/SL-8 is classified as:


NORAD ID: 28898
Int'l Code: 2005-043G
Perigee: 687.0 km
Apogee: 713.6 km
Inclination: 97.9 °
Period: 98.6 minutes
Semi major axis: 7071 km
RCS: 6.834 m2 (large)
Launch date: October 27, 2005
Source: Germany (GER)
Launch site: PLESETSK MISSILE AND SPACE COMPLEX (PKMTR)
Uplink (MHz):
Downlink (MHz):
Beacon (MHz):
Mode:
Call sign:
Status:

Your satellite tracking list
Your tracking list is empty





NASA's NSSDC Master Catalog

Two Line Element Set (TLE):
1 28898U 05043G   16149.88682698  .00000105  00000-0  30902-4 0  9997
2 28898  97.8777 311.5605 0018853 319.3813  40.5980 14.60098813563758
Source of the keplerian elements: AFSPC

N2YO: 831